Time,TemperatureF,DewpointF,PressureIn,WindDirection,WindDirectionDegrees,WindSpeedMPH,WindSpeedGustMPH,Humidity,HourlyPrecipIn,Conditions,Clouds,dailyrainin,SoftwareType,DateUTC
2015-07-06 00:04:00,73.0,67.0,29.80,South,178,1.0,4.0,81,-99.99,,,-99.99,,2015-07-06 05:04:00,
2015-07-06 00:13:00,73.0,67.0,29.80,South,178,1.0,4.0,81,-99.99,,,-99.99,,2015-07-06 05:13:00,
2015-07-06 00:23:00,73.0,67.0,29.80,South,174,1.0,4.0,82,-99.99,,,-99.99,,2015-07-06 05:23:00,
2015-07-06 00:33:00,73.0,68.0,29.80,South,171,1.0,5.0,83,-99.99,,,-99.99,,2015-07-06 05:33:00,
2015-07-06 00:44:00,73.0,68.0,29.80,South,171,1.0,5.0,83,-99.99,,,-99.99,,2015-07-06 05:44:00,
2015-07-06 00:53:00,73.0,68.0,29.79,South,171,1.0,5.0,84,-99.99,,,-99.99,,2015-07-06 05:53:00,
2015-07-06 01:03:00,73.0,68.0,29.80,South,171,1.0,3.0,85,-99.99,,,-99.99,,2015-07-06 06:03:00,
2015-07-06 01:13:00,73.0,68.0,29.80,South,171,1.0,3.0,85,-99.99,,,-99.99,,2015-07-06 06:13:00,
2015-07-06 01:23:00,73.0,68.0,29.80,South,171,0.0,3.0,85,-99.99,,,-99.99,,2015-07-06 06:23:00,
2015-07-06 01:33:00,73.0,69.0,29.80,South,171,1.0,3.0,86,-99.99,,,-99.99,,2015-07-06 06:33:00,
2015-07-06 01:43:00,73.0,69.0,29.80,South,171,1.0,3.0,86,-99.99,,,-99.99,,2015-07-06 06:43:00,
2015-07-06 01:54:00,72.0,68.0,29.80,South,171,1.0,4.0,87,-99.99,,,-99.99,,2015-07-06 06:54:00,
2015-07-06 02:03:00,72.0,68.0,29.80,South,171,0.0,3.0,87,-99.99,,,-99.99,,2015-07-06 07:03:00,
2015-07-06 02:13:00,72.0,68.0,29.80,South,171,0.0,3.0,87,-99.99,,,-99.99,,2015-07-06 07:13:00,
2015-07-06 02:23:00,72.0,68.0,29.80,South,171,0.0,4.0,87,-99.99,,,-99.99,,2015-07-06 07:23:00,
2015-07-06 02:33:00,72.0,68.0,29.80,South,171,0.0,2.0,88,-99.99,,,-99.99,,2015-07-06 07:33:00,
2015-07-06 02:43:00,72.0,68.0,29.80,South,171,0.0,2.0,88,-99.99,,,-99.99,,2015-07-06 07:43:00,
2015-07-06 02:53:00,72.0,68.0,29.79,South,171,1.0,3.0,88,-99.99,,,-99.99,,2015-07-06 07:53:00,
2015-07-06 03:03:00,72.0,69.0,29.80,South,171,0.0,2.0,89,-99.99,,,-99.99,,2015-07-06 08:03:00,
2015-07-06 03:12:00,72.0,69.0,29.80,South,171,0.0,2.0,89,-99.99,,,-99.99,,2015-07-06 08:12:00,
2015-07-06 03:23:00,72.0,69.0,29.80,South,171,2.0,4.0,89,-99.99,,,-99.99,,2015-07-06 08:23:00,
2015-07-06 03:43:00,72.0,69.0,29.79,South,175,1.0,6.0,90,-99.99,,,-99.99,,2015-07-06 08:43:00,
2015-07-06 03:53:00,72.0,69.0,29.79,South,175,2.0,6.0,90,-99.99,,,-99.99,,2015-07-06 08:53:00,
2015-07-06 04:03:00,72.0,69.0,29.80,South,175,0.0,4.0,90,-99.99,,,-99.99,,2015-07-06 09:03:00,
2015-07-06 04:12:00,72.0,69.0,29.80,South,175,0.0,4.0,90,-99.99,,,-99.99,,2015-07-06 09:12:00,
2015-07-06 04:23:00,72.0,69.0,29.80,South,175,2.0,5.0,90,-99.99,,,-99.99,,2015-07-06 09:23:00,
2015-07-06 04:33:00,72.0,69.0,29.80,South,175,1.0,4.0,90,-99.99,,,-99.99,,2015-07-06 09:33:00,
2015-07-06 04:43:00,72.0,69.0,29.80,South,175,1.0,4.0,90,-99.99,,,-99.99,,2015-07-06 09:43:00,
2015-07-06 04:53:00,72.0,69.0,29.80,South,175,1.0,6.0,90,-99.99,,,-99.99,,2015-07-06 09:53:00,
2015-07-06 05:03:00,72.0,69.0,29.79,South,175,2.0,7.0,90,-99.99,,,-99.99,,2015-07-06 10:03:00,
2015-07-06 05:13:00,72.0,69.0,29.79,South,175,2.0,7.0,90,-99.99,,,-99.99,,2015-07-06 10:13:00,
2015-07-06 05:23:00,72.0,69.0,29.79,South,175,1.0,5.0,90,-99.99,,,-99.99,,2015-07-06 10:23:00,
2015-07-06 05:33:00,72.0,69.0,29.79,South,177,2.0,7.0,90,-99.99,,,-99.99,,2015-07-06 10:33:00,
2015-07-06 05:43:00,72.0,69.0,29.79,South,177,2.0,7.0,90,-99.99,,,-99.99,,2015-07-06 10:43:00,
2015-07-06 05:54:00,72.0,69.0,29.80,South,178,2.0,6.0,90,-99.99,,,-99.99,,2015-07-06 10:54:00,
2015-07-06 06:03:00,72.0,69.0,29.80,South,180,3.0,7.0,90,-99.99,,,-99.99,,2015-07-06 11:03:00,
2015-07-06 06:13:00,72.0,69.0,29.80,South,180,3.0,7.0,90,-99.99,,,-99.99,,2015-07-06 11:13:00,
2015-07-06 06:23:00,72.0,69.0,29.80,South,184,1.0,5.0,90,-99.99,,,-99.99,,2015-07-06 11:23:00,
2015-07-06 06:34:00,72.0,69.0,29.80,South,179,4.0,9.0,90,-99.99,,,-99.99,,2015-07-06 11:34:00,
2015-07-06 06:43:00,72.0,69.0,29.80,South,179,4.0,9.0,90,-99.99,,,-99.99,,2015-07-06 11:43:00,
2015-07-06 06:54:00,72.0,69.0,29.80,SSW,192,4.0,8.0,90,-99.99,,,-99.99,,2015-07-06 11:54:00,
2015-07-06 07:03:00,72.0,69.0,29.80,South,187,2.0,8.0,90,-99.99,,,-99.99,,2015-07-06 12:03:00,
2015-07-06 07:13:00,72.0,69.0,29.80,South,187,2.0,8.0,90,-99.99,,,-99.99,,2015-07-06 12:13:00,
2015-07-06 07:23:00,73.0,70.0,29.81,SSW,193,2.0,9.0,90,-99.99,,,-99.99,,2015-07-06 12:23:00,
2015-07-06 07:34:00,73.0,70.0,29.82,South,182,3.0,8.0,90,-99.99,,,-99.99,,2015-07-06 12:34:00,
2015-07-06 07:44:00,73.0,70.0,29.82,South,182,3.0,8.0,90,-99.99,,,-99.99,,2015-07-06 12:44:00,
2015-07-06 07:54:00,74.0,71.0,29.82,South,182,4.0,9.0,89,-99.99,,,-99.99,,2015-07-06 12:54:00,
2015-07-06 08:03:00,74.0,71.0,29.82,SE,142,5.0,11.0,89,-99.99,,,-99.99,,2015-07-06 13:03:00,
2015-07-06 08:13:00,74.0,71.0,29.82,SE,142,5.0,11.0,89,-99.99,,,-99.99,,2015-07-06 13:13:00,
2015-07-06 08:23:00,74.0,71.0,29.82,SE,142,5.0,11.0,89,-99.99,,,-99.99,,2015-07-06 13:23:00,
2015-07-06 08:33:00,75.0,71.0,29.83,South,188,5.0,10.0,88,-99.99,,,-99.99,,2015-07-06 13:33:00,
2015-07-06 08:43:00,75.0,71.0,29.83,South,188,5.0,10.0,88,-99.99,,,-99.99,,2015-07-06 13:43:00,
2015-07-06 08:54:00,76.0,72.0,29.83,SSW,213,6.0,12.0,87,-99.99,,,-99.99,,2015-07-06 13:54:00,
2015-07-06 09:03:00,76.0,72.0,29.84,SSW,211,7.0,18.0,86,-99.99,,,-99.99,,2015-07-06 14:03:00,
2015-07-06 09:12:00,76.0,72.0,29.84,SSW,211,7.0,18.0,86,-99.99,,,-99.99,,2015-07-06 14:12:00,
2015-07-06 09:23:00,77.0,72.0,29.83,SW,227,5.0,14.0,86,-99.99,,,-99.99,,2015-07-06 14:23:00,
2015-07-06 09:33:00,78.0,73.0,29.82,SW,217,8.0,14.0,84,-99.99,,,-99.99,,2015-07-06 14:33:00,
2015-07-06 09:44:00,78.0,73.0,29.82,SW,217,8.0,14.0,84,-99.99,,,-99.99,,2015-07-06 14:44:00,
2015-07-06 09:53:00,78.0,73.0,29.82,SW,230,8.0,17.0,84,-99.99,,,-99.99,,2015-07-06 14:53:00,
2015-07-06 10:03:00,78.0,73.0,29.82,SSW,194,7.0,15.0,84,-99.99,,,-99.99,,2015-07-06 15:03:00,
2015-07-06 10:13:00,78.0,73.0,29.82,SSW,194,7.0,15.0,84,-99.99,,,-99.99,,2015-07-06 15:13:00,
2015-07-06 10:23:00,79.0,73.0,29.83,SSW,206,7.0,16.0,83,-99.99,,,-99.99,,2015-07-06 15:23:00,
2015-07-06 10:33:00,79.0,73.0,29.83,SSW,206,7.0,16.0,83,-99.99,,,-99.99,,2015-07-06 15:33:00,
2015-07-06 10:44:00,79.0,73.0,29.83,SW,227,4.0,15.0,83,-99.99,,,-99.99,,2015-07-06 15:44:00,
2015-07-06 10:54:00,79.0,73.0,29.83,SSW,212,5.0,15.0,82,-99.99,,,-99.99,,2015-07-06 15:54:00,
2015-07-06 11:03:00,80.0,74.0,29.82,SW,236,6.0,15.0,82,-99.99,,,-99.99,,2015-07-06 16:03:00,
2015-07-06 11:13:00,80.0,74.0,29.82,SW,236,6.0,15.0,82,-99.99,,,-99.99,,2015-07-06 16:13:00,
2015-07-06 11:23:00,80.0,74.0,29.83,SSW,201,3.0,16.0,82,-99.99,,,-99.99,,2015-07-06 16:23:00,
2015-07-06 11:34:00,79.0,73.0,29.82,SW,214,6.0,13.0,82,-99.99,,,-99.99,,2015-07-06 16:34:00,
2015-07-06 11:44:00,79.0,73.0,29.82,SW,214,6.0,13.0,82,-99.99,,,-99.99,,2015-07-06 16:44:00,
2015-07-06 11:54:00,79.0,73.0,29.83,SW,227,6.0,14.0,82,-99.99,,,-99.99,,2015-07-06 16:54:00,
2015-07-06 12:04:00,80.0,74.0,29.82,WSW,246,5.0,14.0,81,-99.99,,,-99.99,,2015-07-06 17:04:00,
2015-07-06 12:14:00,80.0,74.0,29.82,WSW,246,5.0,-999.0,81,-99.99,,,-99.99,,2015-07-06 17:14:00,
2015-07-06 12:34:00,81.0,74.0,29.83,SSW,202,6.0,11.0,80,-99.99,,,-99.99,,2015-07-06 17:34:00,
2015-07-06 12:44:00,81.0,74.0,29.83,SSW,202,6.0,11.0,80,-99.99,,,-99.99,,2015-07-06 17:44:00,
2015-07-06 12:54:00,80.0,73.0,29.83,SSW,205,5.0,11.0,80,-99.99,,,-99.99,,2015-07-06 17:54:00,
2015-07-06 13:04:00,80.0,73.0,29.82,SW,215,7.0,16.0,80,-99.99,,,-99.99,,2015-07-06 18:04:00,
2015-07-06 13:13:00,80.0,73.0,29.82,SW,215,7.0,16.0,80,-99.99,,,-99.99,,2015-07-06 18:13:00,
2015-07-06 13:24:00,80.0,74.0,29.82,SSW,206,2.0,11.0,81,-99.99,,,-99.99,,2015-07-06 18:24:00,
2015-07-06 13:34:00,81.0,75.0,29.81,SSW,203,4.0,10.0,81,-99.99,,,-99.99,,2015-07-06 18:34:00,
2015-07-06 13:44:00,81.0,75.0,29.81,SSW,203,4.0,10.0,81,-99.99,,,-99.99,,2015-07-06 18:44:00,
2015-07-06 13:54:00,82.0,75.0,29.81,WSW,247,5.0,12.0,79,-99.99,,,-99.99,,2015-07-06 18:54:00,
2015-07-06 14:03:00,82.0,74.0,29.80,SW,215,4.0,13.0,78,-99.99,,,-99.99,,2015-07-06 19:03:00,
2015-07-06 14:13:00,82.0,74.0,29.80,SW,215,4.0,13.0,78,-99.99,,,-99.99,,2015-07-06 19:13:00,
2015-07-06 14:24:00,83.0,75.0,29.80,SW,215,8.0,20.0,78,-99.99,,,-99.99,,2015-07-06 19:24:00,
2015-07-06 14:33:00,84.0,76.0,29.80,SSW,213,5.0,13.0,76,-99.99,,,-99.99,,2015-07-06 19:33:00,
2015-07-06 14:44:00,84.0,76.0,29.80,SSW,213,5.0,13.0,76,-99.99,,,-99.99,,2015-07-06 19:44:00,
2015-07-06 14:54:00,84.0,75.0,29.79,SSW,211,7.0,14.0,75,-99.99,,,-99.99,,2015-07-06 19:54:00,
2015-07-06 15:04:00,83.0,75.0,29.79,WSW,240,6.0,13.0,76,-99.99,,,-99.99,,2015-07-06 20:04:00,
2015-07-06 15:13:00,83.0,75.0,29.79,WSW,240,6.0,13.0,76,-99.99,,,-99.99,,2015-07-06 20:13:00,
2015-07-06 15:23:00,84.0,75.0,29.79,WSW,241,6.0,14.0,74,-99.99,,,-99.99,,2015-07-06 20:23:00,
2015-07-06 15:33:00,84.0,75.0,29.78,SSW,210,9.0,15.0,75,-99.99,,,-99.99,,2015-07-06 20:33:00,
2015-07-06 15:44:00,84.0,75.0,29.78,SSW,210,9.0,15.0,75,-99.99,,,-99.99,,2015-07-06 20:44:00,
2015-07-06 15:54:00,84.0,75.0,29.77,SSW,203,7.0,14.0,74,-99.99,,,-99.99,,2015-07-06 20:54:00,
2015-07-06 16:03:00,85.0,75.0,29.76,SW,217,6.0,13.0,73,-99.99,,,-99.99,,2015-07-06 21:03:00,
2015-07-06 16:13:00,85.0,75.0,29.76,SW,217,6.0,13.0,73,-99.99,,,-99.99,,2015-07-06 21:13:00,
2015-07-06 16:23:00,85.0,75.0,29.75,SSW,205,7.0,14.0,73,-99.99,,,-99.99,,2015-07-06 21:23:00,
2015-07-06 16:33:00,85.0,75.0,29.74,WSW,246,9.0,17.0,72,-99.99,,,-99.99,,2015-07-06 21:33:00,
2015-07-06 16:44:00,85.0,75.0,29.74,WSW,246,9.0,17.0,72,-99.99,,,-99.99,,2015-07-06 21:44:00,